Weather History for Camdenton, MO

Change the Weather History Date:

Thursday, March 28, 2013

  Actual Average (KAIZ) Record (KAIZ)
Temperature  
Mean Temperature 52 °F -  
Max Temperature 62 °F 60 °F 80 °F (2012)
Min Temperature 42 °F 38 °F 28 °F (2005)
Degree Days  
Heating Degree Days 13    
Growing Degree Days 2 (Base 50)    
Moisture  
Dew Point 34 °F    
Average Humidity 55    
Maximum Humidity 71    
Minimum Humidity 36    
Precipitation  
Precipitation 0.00 in - - ()
Sea Level Pressure  
Sea Level Pressure 30.22 in    
Wind  
Wind Speed 8 mph (ESE)    
Max Wind Speed 12 mph    
Max Gust Speed -    
Visibility 10 miles    
Events Rain    
Averages and records for this station are not official NWS values.
T = Trace of Precipitation, MM = Missing Value Source: NWS Daily Summary

Daily Weather History Graph

Daily Weather History Graph

Search for Another Location

Airport:

Trip Planner

Search our weather history database for the weather conditions in past years. The results will help you decide how hot, cold, wet, or windy it might be!

Date:

Astronomy

Mar. 28, 2013 Rise Set
Actual Time 7:01 AM CDT 7:30 PM CDT
Civil Twilight 6:35 AM CDT 7:56 PM CDT
Nautical Twilight 6:04 AM CDT 8:27 PM CDT
Astronomical Twilight 5:32 AM CDT 8:59 PM CDT
Moon 9:20 PM CDT (3/28) 7:31 AM CDT (3/28)
Length of Visible Light 13h 21m
Length of Day
12h 28m
Full, 98% of the Moon is Illuminated
Mar 28
Full
Apr 2
Last Quarter
Apr 10
New
Apr 18
First Quarter
Apr 25
Full

Hourly Weather History & Observations

Time (CDT) Temp. Windchill Dew Point Humidity Pressure Visibility Wind Dir Wind Speed Gust Speed Precip Events Conditions
12:15 AM 44.6 °F 40.2 °F 30.2 °F 57% 30.26 in 10.0 mi East 8.1 mph - N/A   Overcast
12:35 AM 44.6 °F 40.2 °F 30.2 °F 57% 30.26 in 10.0 mi East 8.1 mph - N/A   Overcast
12:55 AM 44.6 °F 40.7 °F 30.2 °F 57% 30.25 in 10.0 mi East 6.9 mph - N/A   Overcast
1:15 AM 44.6 °F 40.7 °F 30.2 °F 57% 30.25 in 10.0 mi East 6.9 mph - N/A   Overcast
1:35 AM 44.6 °F 40.7 °F 30.2 °F 57% 30.26 in 10.0 mi ESE 6.9 mph - N/A   Overcast
1:55 AM 44.6 °F 40.7 °F 30.2 °F 57% 30.25 in 10.0 mi ESE 6.9 mph - N/A   Overcast
2:15 AM 44.6 °F 40.7 °F 30.2 °F 57% 30.25 in 10.0 mi ESE 6.9 mph - N/A   Overcast
2:35 AM 42.8 °F 38.0 °F 30.2 °F 61% 30.25 in 10.0 mi ESE 8.1 mph - N/A   Overcast
2:55 AM 42.8 °F 38.6 °F 30.2 °F 61% 30.25 in 10.0 mi ESE 6.9 mph - N/A   Overcast
3:15 AM 42.8 °F 39.3 °F 30.2 °F 61% 30.24 in 10.0 mi East 5.8 mph - N/A   Overcast
3:35 AM 42.8 °F 38.6 °F 32.0 °F 66% 30.24 in 10.0 mi East 6.9 mph - N/A   Overcast
3:55 AM 42.8 °F 39.3 °F 32.0 °F 66% 30.24 in 10.0 mi East 5.8 mph - N/A   Overcast
4:15 AM 42.8 °F 38.0 °F 32.0 °F 66% 30.24 in 10.0 mi East 8.1 mph - N/A   Overcast
4:35 AM 42.8 °F 37.5 °F 32.0 °F 66% 30.23 in 10.0 mi East 9.2 mph - N/A   Overcast
4:55 AM 42.8 °F 37.5 °F 32.0 °F 66% 30.23 in 10.0 mi ESE 9.2 mph - N/A   Overcast
5:15 AM 42.8 °F 37.5 °F 32.0 °F 66% 30.23 in 10.0 mi ESE 9.2 mph - N/A   Overcast
5:35 AM 42.8 °F 37.5 °F 32.0 °F 66% 30.23 in 10.0 mi ESE 9.2 mph - N/A   Overcast
5:55 AM 42.8 °F 37.5 °F 32.0 °F 66% 30.23 in 10.0 mi ESE 9.2 mph - N/A   Overcast
6:15 AM 42.8 °F 38.0 °F 32.0 °F 66% 30.23 in 10.0 mi ESE 8.1 mph - N/A   Overcast
6:35 AM 42.8 °F 38.6 °F 32.0 °F 66% 30.23 in 10.0 mi East 6.9 mph - N/A   Overcast
6:55 AM 42.8 °F 38.0 °F 32.0 °F 66% 30.24 in 10.0 mi East 8.1 mph - N/A   Overcast
7:15 AM 42.8 °F 38.6 °F 32.0 °F 66% 30.24 in 10.0 mi East 6.9 mph - N/A   Overcast
7:35 AM 42.8 °F 38.6 °F 32.0 °F 66% 30.24 in 10.0 mi East 6.9 mph - N/A   Overcast
7:55 AM 42.8 °F 38.0 °F 32.0 °F 66% 30.24 in 10.0 mi East 8.1 mph - N/A   Overcast
8:15 AM 42.8 °F 38.0 °F 32.0 °F 66% 30.24 in 10.0 mi ESE 8.1 mph - N/A   Overcast
8:35 AM 42.8 °F 37.0 °F 32.0 °F 66% 30.24 in 10.0 mi ESE 10.4 mph - N/A   Overcast
8:55 AM 44.6 °F 40.2 °F 32.0 °F 61% 30.25 in 10.0 mi ESE 8.1 mph - N/A   Overcast
9:15 AM 44.6 °F 39.7 °F 33.8 °F 66% 30.25 in 10.0 mi ESE 9.2 mph - N/A   Overcast
9:35 AM 44.6 °F 39.2 °F 32.0 °F 61% 30.26 in 10.0 mi SE 10.4 mph - N/A   Overcast
9:55 AM 44.6 °F 40.2 °F 33.8 °F 66% 30.25 in 10.0 mi ESE 8.1 mph - N/A   Overcast
10:15 AM 44.6 °F 40.2 °F 33.8 °F 66% 30.25 in 10.0 mi ESE 8.1 mph - N/A Rain Light Rain
10:35 AM 44.6 °F 42.2 °F 33.8 °F 66% 30.26 in 10.0 mi East 4.6 mph - N/A   Overcast
10:55 AM 46.4 °F 43.5 °F 33.8 °F 62% 30.26 in 10.0 mi East 5.8 mph - N/A   Overcast
11:15 AM 50.0 °F - 35.6 °F 58% 30.25 in 10.0 mi ESE 8.1 mph - N/A   Overcast
11:35 AM 50.0 °F - 35.6 °F 58% 30.25 in 10.0 mi ESE 5.8 mph - N/A   Overcast
11:55 AM 53.6 °F - 37.4 °F 54% 30.25 in 10.0 mi SE 9.2 mph - N/A   Mostly Cloudy
12:15 PM 55.4 °F - 37.4 °F 51% 30.24 in 10.0 mi SE 11.5 mph - N/A   Mostly Cloudy
12:35 PM 55.4 °F - 35.6 °F 47% 30.24 in 10.0 mi ESE 9.2 mph - N/A   Scattered Clouds
12:55 PM 59.0 °F - 35.6 °F 42% 30.23 in 10.0 mi East 9.2 mph - N/A   Clear
1:15 PM 59.0 °F - 35.6 °F 42% 30.22 in 10.0 mi ESE 8.1 mph - N/A   Clear
1:35 PM 60.8 °F - 35.6 °F 39% 30.22 in 10.0 mi SSE 5.8 mph - N/A   Clear
1:55 PM 60.8 °F - 33.8 °F 36% 30.20 in 10.0 mi NE 3.5 mph - N/A   Clear
2:15 PM 62.6 °F - 35.6 °F 37% 30.19 in 10.0 mi ESE 9.2 mph - N/A   Scattered Clouds
2:35 PM 60.8 °F - 35.6 °F 39% 30.19 in 10.0 mi SE 8.1 mph - N/A   Mostly Cloudy
2:55 PM 60.8 °F - 35.6 °F 39% 30.18 in 10.0 mi ESE 6.9 mph - N/A   Mostly Cloudy
3:15 PM 62.6 °F - 35.6 °F 37% 30.18 in 10.0 mi ESE 8.1 mph - N/A   Mostly Cloudy
3:35 PM 62.6 °F - 35.6 °F 37% 30.17 in 10.0 mi ENE 4.6 mph - N/A   Overcast
3:55 PM 60.8 °F - 35.6 °F 39% 30.17 in 10.0 mi ESE 8.1 mph - N/A   Overcast
4:15 PM 60.8 °F - 37.4 °F 42% 30.17 in 10.0 mi SE 5.8 mph - N/A   Overcast
4:35 PM 60.8 °F - 37.4 °F 42% 30.16 in 10.0 mi ESE 9.2 mph - N/A   Overcast
4:55 PM 62.6 °F - 37.4 °F 39% 30.16 in 10.0 mi SE 8.1 mph - N/A   Scattered Clouds
5:15 PM 62.6 °F - 37.4 °F 39% 30.15 in 10.0 mi ESE 9.2 mph - N/A   Clear
5:55 PM 60.8 °F - 37.4 °F 42% 30.15 in 10.0 mi ESE 5.8 mph - N/A   Overcast
6:35 PM 62.6 °F - 37.4 °F 39% 30.15 in 10.0 mi ESE 8.1 mph - N/A   Overcast
6:55 PM 60.8 °F - 35.6 °F 39% 30.15 in 10.0 mi East 8.1 mph - N/A   Overcast
7:35 PM 59.0 °F - 37.4 °F 45% 30.16 in 10.0 mi East 5.8 mph - N/A   Overcast
7:55 PM 59.0 °F - 37.4 °F 45% 30.16 in 10.0 mi East 6.9 mph - N/A   Overcast
8:15 PM 57.2 °F - 37.4 °F 48% 30.17 in 10.0 mi ESE 6.9 mph - N/A   Overcast
8:35 PM 57.2 °F - 35.6 °F 44% 30.16 in 10.0 mi East 6.9 mph - N/A   Overcast
8:55 PM 55.4 °F - 35.6 °F 47% 30.18 in 10.0 mi East 5.8 mph - N/A   Overcast
9:15 PM 55.4 °F - 35.6 °F 47% 30.18 in 10.0 mi East 6.9 mph - N/A   Overcast
9:35 PM 51.8 °F - 39.2 °F 62% 30.19 in 10.0 mi East 6.9 mph - N/A   Drizzle
9:55 PM 53.6 °F - 37.4 °F 54% 30.19 in 10.0 mi East 6.9 mph - N/A   Mostly Cloudy
10:15 PM 51.8 °F - 37.4 °F 58% 30.19 in 10.0 mi East 6.9 mph - N/A   Overcast
10:35 PM 51.8 °F - 39.2 °F 62% 30.19 in 10.0 mi ESE 6.9 mph - N/A   Overcast
10:55 PM 51.8 °F - 39.2 °F 62% 30.19 in 10.0 mi SE 8.1 mph - N/A   Overcast
11:15 PM 50.0 °F - 41.0 °F 71% 30.18 in 10.0 mi ESE 9.2 mph - N/A   Light Drizzle
11:35 PM 51.8 °F - 37.4 °F 58% 30.18 in 10.0 mi SE 9.2 mph - N/A   Mostly Cloudy
11:55 PM 51.8 °F - 37.4 °F 58% 30.19 in 10.0 mi East 8.1 mph - N/A   Overcast